Wetbulb
64.24 63.74 63.00 62.52 62.44 62.15 61.52 61.31 61.35 61.03 60.47 59.66 59.46 59.00 58.91 59.00 59.59 59.71 59.61 58.64 58.61 59.81 60.70 60.47 60.93 62.75 60.09 60.49 62.24 62.59 63.72 64.13 59.54 61.51 64.81 65.43 64.65 63.71 63.54 65.99 65.36 66.79 65.10
61.36 61.02 60.18 60.30 60.56 59.86 59.03 58.88 58.55 58.13 58.10 56.53 56.38 55.59 55.13 55.57 56.10 55.80 55.17 55.37 55.43 55.67 55.63 55.70 55.59 56.58 59.85 59.97 59.23 60.93 60.48 61.82 59.89 58.63 60.39 60.23 63.10 62.71 65.51 65.82 67.70 65.83 64.76
60.31 59.53 59.56 59.43 59.07 58.43 57.86 57.60 56.95 55.70 55.15 55.12 55.15 54.85 55.45 55.85 55.89 55.10 53.50 53.25 54.00 54.71 55.35 55.67 55.66 55.85 56.61 55.86 57.14 56.79 57.04 58.30 58.95 58.29 58.59 60.64 61.03 62.96 63.47 64.04 60.37 63.15 62.75
58.26 58.10 57.17 56.88 56.58 55.62 55.29 55.50 55.17 55.41 55.02 55.06 55.30 55.13 55.36 55.34 53.14 50.91 50.52 51.23 52.25 53.20 54.08 54.16 53.75 53.10 50.70 50.78 52.06 53.07 53.97 54.10 54.88 55.77 56.58 57.57 58.07 60.94 61.37 60.35 59.94 62.19 62.44
56.35 55.40 54.22 53.57 54.30 53.77 54.41 54.53 55.02 54.70 54.03 54.13 54.08 54.57 54.76 54.61 48.59 47.88 48.91 49.87 51.08 52.31 52.18 51.12 51.22 50.39 49.54 50.14 48.92 49.29 49.20 48.73 50.04 50.73 51.80 53.41 54.59 55.80 56.55 57.92 57.91 59.36 61.10
55.42 53.56 53.56 52.86 53.16 52.98 53.57 53.95 53.97 53.64 53.91 53.72 53.46 53.19 53.37 50.96 43.79 43.86 45.49 48.45 50.03 50.02 50.28 49.80 50.22 49.64 49.76 48.64 48.74 48.46 47.55 46.90 46.46 47.40 47.59 47.05 50.59 52.42 52.98 52.50 53.30 53.65 52.50
52.25 52.00 52.09 52.56 52.85 53.52 54.16 53.61 52.99 52.95 53.37 52.75 52.87 52.67 52.00 48.44 43.66 43.54 44.46 49.98 50.63 51.04 51.37 51.07 50.19 50.74 49.32 48.10 47.77 47.52 47.32 47.25 47.53 47.25 45.80 46.33 46.10 47.96 48.58 46.94 47.59 48.57 49.13
51.92 51.57 52.12 52.58 52.94 53.45 53.01 52.10 52.08 52.11 51.81 51.76 51.74 51.66 51.17 49.95 44.08 43.25 44.18 50.90 50.56 50.72 50.60 50.91 51.01 51.01 51.15 49.49 49.46 48.46 48.90 49.43 50.32 48.87 47.49 47.78 48.83 50.47 49.51 46.84 45.85 45.78 47.21
50.91 51.60 52.24 52.66 52.44 52.02 51.17 51.31 50.42 50.81 50.90 51.27 51.85 51.38 51.17 51.65 44.96 43.06 45.16 48.85 48.96 49.61 50.80 51.41 50.82 50.96 48.14 44.59 47.51 46.29 46.49 47.67 48.68 46.79 45.25 44.34 43.15 42.96 44.30 46.66 44.30 43.77 42.27
51.24 51.72 52.38 52.33 51.85 50.60 50.63 50.04 49.94 50.80 50.90 50.64 50.66 51.47 49.30 50.88 45.15 43.12 44.80 48.84 48.67 48.57 49.46 50.61 48.34 47.58 42.65 41.86 43.70 43.49 42.45 43.64 45.21 46.48 46.76 46.42 44.64 45.84 44.51 45.82 45.42 44.01 44.42
51.61 51.77 51.91 51.82 50.94 50.26 50.04 49.69 50.06 50.20 49.29 49.52 49.73 50.37 51.68 50.55 50.88 42.44 41.85 46.93 45.48 44.84 46.64 49.17 51.29 44.16 42.43 41.49 41.49 43.06 42.46 44.31 43.84 43.56 43.41 44.10 46.08 46.67 48.14 47.96 47.70 47.61 45.08
51.58 51.38 50.79 50.75 50.02 49.96 48.96 49.23 49.67 49.52 47.94 48.85 50.82 50.92 51.32 52.19 46.28 42.62 40.99 40.29 41.24 43.08 44.66 48.12 48.37 42.80 40.98 41.09 43.29 42.71 41.33 42.11 42.29 41.93 41.59 41.67 42.23 43.08 45.13 49.06 50.28 49.77 49.25
50.79 49.61 49.76 49.92 49.70 50.14 49.37 49.03 49.08 47.83 47.36 49.05 49.25 48.34 48.93 50.47 49.84 43.17 41.00 39.81 41.97 43.64 45.90 45.75 42.33 41.77 43.27 46.56 44.58 43.21 44.77 48.25 47.03 41.28 40.68 41.44 42.81 43.99 45.99 46.28 50.59 50.59 50.66
48.70 48.58 49.90 49.49 47.45 49.58 49.90 49.92 48.36 47.54 47.37 47.38 45.53 44.56 46.59 46.97 45.71 43.63 43.18 44.19 44.06 45.84 46.49 49.70 46.79 44.33 43.35 44.79 47.50 47.04 47.56 48.11 45.57 43.25 42.09 42.85 43.72 43.61 44.17 45.98 45.39 46.69 45.80
48.85 49.33 49.33 49.05 48.29 47.67 48.29 49.15 48.70 47.19 44.11 44.33 42.14 40.82 40.64 41.04 40.51 37.93 37.89 40.53 43.49 43.37 44.85 49.31 47.47 45.15 43.86 44.29 44.46 45.56 46.55 48.81 46.16 45.71 44.51 43.83 43.73 43.88 44.39 45.61 46.18 45.66 44.68
48.75 48.76 46.87 47.34 46.82 47.02 47.78 49.00 41.56 40.75 39.65 38.44 37.49 37.70 39.38 38.45 37.22 37.15 37.46 37.49 37.45 38.78 48.29 45.99 44.71 43.70 41.44 41.75 42.03 43.06 45.29 45.95 48.91 49.22 47.82 46.70 44.34 44.10 44.14 45.90 46.17 45.50 44.56
45.54 45.47 47.59 46.02 45.38 47.00 47.87 47.49 47.37 43.51 40.95 38.84 37.34 36.96 36.82 36.46 36.91 36.98 37.42 37.08 38.06 42.91 45.48 44.07 43.60 44.20 43.14 41.76 41.33 41.32 41.52 44.39 46.40 48.10 49.99 48.93 47.88 46.44 44.87 45.41 45.98 45.75 46.64
45.61 39.01 44.77 44.47 46.99 47.06 46.68 46.72 47.33 44.20 43.13 44.79 39.48 37.94 36.97 36.54 36.76 36.81 37.53 42.21 46.41 44.85 43.68 43.30 43.28 44.00 43.60 43.58 43.09 41.24 41.01 42.82 43.59 45.59 47.39 48.45 50.83 49.91 48.08 48.27 47.55 48.07 48.65
46.40 45.07 44.94 47.79 46.40 44.49 47.06 46.55 44.49 41.53 41.24 41.55 42.48 40.95 36.82 36.31 37.52 37.26 38.72 44.49 41.00 41.52 41.55 42.67 45.97 45.99 46.08 46.11 46.66 45.86 45.25 43.49 42.18 42.77 44.50 45.90 48.02 51.66 49.95 49.69 50.60 41.72 44.18
44.18 37.16 41.30 46.75 46.48 46.61 45.85 44.25 41.52 38.51 38.98 38.49 37.48 35.97 35.46 38.13 40.20 42.56 40.22 41.71 40.56 41.29 40.64 40.98 46.73 46.64 46.62 46.62 46.26 46.78 45.54 45.47 43.70 43.72 46.09 48.48 51.56 52.33 51.27 50.99 50.62 51.95 51.59
45.37 44.32 35.03 46.65 44.13 43.52 43.23 41.06 38.18 36.15 36.72 36.23 36.26 34.87 32.18 37.20 37.56 39.35 40.07 39.46 38.59 40.51 41.07 43.11 45.85 45.60 45.29 45.24 44.38 44.34 43.72 42.43 42.48 44.43 47.42 47.91 53.56 55.11 55.68 52.72 52.79 53.31 50.79
44.49 43.64 43.39 42.33 42.35 41.98 41.50 40.03 37.27 35.69 37.24 37.85 37.43 36.50 32.85 39.05 37.78 38.00 43.39 42.19 41.55 43.74 45.56 45.69 44.62 44.37 43.77 43.06 42.39 41.94 41.23 39.35 39.13 43.15 48.62 48.58 52.34 53.96 55.01 55.89 52.19 52.30 52.00
42.34 42.05 41.76 41.11 40.21 37.00 39.24 38.57 37.16 36.84 36.69 38.35 38.79 37.97 38.49 40.36 41.09 41.38 42.44 44.84 45.96 45.41 45.56 44.91 43.77 42.92 43.21 42.53 41.84 40.60 39.59 37.47 36.57 43.69 45.02 48.56 52.43 51.14 54.03 55.21 53.56 53.33 50.15
40.81 39.96 39.67 38.13 37.26 37.39 37.34 36.54 34.93 33.20 34.58 35.59 37.74 40.69 43.80 43.73 43.58 43.79 44.05 44.70 44.42 44.70 44.54 44.32 43.37 41.94 41.56 40.47 39.62 39.09 38.67 35.49 37.48 40.95 42.94 49.98 50.54 50.56 52.11 52.96 52.60 52.04 52.77
39.43 39.33 38.86 37.17 36.39 36.14 36.89 37.11 36.84 35.88 36.30 37.56 39.04 40.60 41.59 42.62 42.56 42.53 43.16 43.55 43.73 43.54 43.36 43.77 43.15 41.71 40.65 39.20 36.95 36.31 32.70 30.82 34.67 32.95 42.44 48.15 47.52 49.17 50.15 51.00 50.93 51.79 52.52
39.10 38.67 38.70 38.66 37.44 37.67 38.21 39.46 41.19 41.36 40.70 40.89 41.27 41.27 41.14 41.06 41.35 41.75 41.95 42.16 42.46 42.42 42.60 42.28 42.48 40.95 38.40 37.61 34.85 31.84 30.63 30.64 33.00 32.07 40.68 45.75 44.99 46.15 46.94 47.11 48.69 49.17 50.18
MSLP
1011.75 1012.00 1012.34 1012.73 1013.09 1013.46 1013.74 1013.90 1013.92 1013.81 1013.55 1013.48 1013.43 1013.06 1013.10 1012.76 1012.77 1013.12 1012.98 1012.33 1011.83 1011.72 1011.36 1010.92 1010.43 1009.89 1009.31 1008.84 1008.25 1007.67 1007.72 1008.01 1007.24 1006.39 1006.29 1005.69 1005.71 1005.35 1005.76 1004.15 1004.90 1004.09 1004.48
1012.59 1012.88 1013.27 1013.56 1013.96 1014.39 1014.69 1014.73 1014.61 1014.33 1014.41 1014.55 1014.40 1014.03 1013.57 1013.33 1013.30 1013.41 1013.07 1012.84 1012.33 1011.83 1011.71 1011.34 1010.82 1010.24 1009.70 1009.45 1008.70 1008.12 1007.56 1007.32 1007.06 1006.25 1006.23 1006.21 1005.68 1005.73 1005.62 1005.73 1004.93 1005.24 1004.44
1013.08 1013.60 1014.12 1014.21 1014.46 1014.80 1015.03 1015.18 1015.07 1014.98 1015.02 1014.87 1014.71 1014.39 1013.79 1013.84 1013.53 1014.13 1013.82 1013.67 1013.09 1012.50 1011.94 1011.44 1011.18 1010.72 1010.39 1009.88 1009.53 1008.95 1008.32 1007.65 1007.00 1006.13 1005.24 1005.07 1004.87 1004.75 1004.58 1004.67 1005.32 1005.29 1004.86
1013.85 1014.32 1014.88 1015.17 1015.29 1015.28 1015.57 1015.48 1015.61 1015.29 1015.31 1015.15 1014.88 1014.41 1014.41 1014.12 1014.59 1014.97 1014.49 1014.08 1013.31 1012.70 1012.34 1012.08 1011.73 1011.36 1011.57 1011.27 1010.59 1010.04 1009.42 1008.70 1007.86 1006.81 1005.59 1004.87 1004.52 1004.11 1003.97 1003.70 1003.38 1003.59 1003.74
1014.43 1014.78 1015.28 1015.68 1015.25 1015.30 1015.69 1016.08 1016.02 1015.83 1015.69 1015.47 1014.76 1014.68 1014.74 1014.39 1015.58 1015.69 1015.22 1014.49 1013.79 1012.99 1012.80 1012.66 1012.28 1012.26 1012.19 1011.76 1011.29 1010.75 1010.48 1009.83 1008.78 1007.56 1006.42 1005.52 1004.53 1003.94 1003.64 1003.30 1002.83 1002.45 1002.11
1014.52 1014.92 1015.02 1015.16 1015.48 1016.37 1016.37 1016.14 1016.13 1015.96 1015.75 1015.46 1015.25 1015.10 1014.94 1015.27 1016.03 1016.32 1016.21 1015.27 1014.27 1013.52 1013.03 1012.70 1012.34 1012.00 1011.42 1011.48 1011.21 1011.14 1011.04 1010.42 1009.63 1008.82 1007.80 1007.12 1006.22 1005.75 1005.45 1005.33 1004.70 1003.88 1003.13
1015.32 1015.52 1015.54 1015.72 1015.92 1016.27 1016.32 1016.37 1016.37 1016.14 1016.00 1015.71 1015.61 1015.57 1015.40 1016.05 1016.27 1016.48 1016.20 1015.09 1014.22 1013.47 1012.89 1012.38 1011.93 1011.31 1011.36 1011.25 1010.88 1010.57 1010.13 1009.83 1009.62 1009.16 1008.40 1007.99 1007.42 1007.04 1006.64 1006.40 1006.15 1006.06 1005.59
1015.46 1015.76 1016.06 1016.17 1016.28 1016.57 1016.58 1016.60 1016.64 1016.53 1016.42 1016.15 1015.95 1015.96 1015.86 1015.89 1016.11 1016.07 1015.76 1014.78 1014.11 1013.60 1013.03 1012.41 1011.81 1011.26 1010.73 1010.54 1010.12 1009.72 1009.22 1008.67 1008.20 1007.96 1007.91 1007.53 1007.32 1007.04 1007.07 1007.11 1007.10 1006.96 1006.60
1016.18 1016.50 1016.64 1016.71 1016.77 1016.97 1016.90 1016.95 1017.17 1016.99 1016.57 1016.24 1016.08 1015.93 1015.72 1015.54 1015.73 1015.83 1015.56 1014.60 1013.77 1013.08 1012.42 1011.96 1011.56 1010.85 1010.42 1010.01 1009.99 1009.47 1008.76 1007.98 1007.63 1007.30 1006.86 1006.65 1006.63 1006.65 1006.84 1006.92 1006.61 1006.48 1006.32
1016.70 1016.93 1017.24 1017.35 1017.37 1017.37 1017.45 1017.58 1017.57 1017.13 1016.70 1016.65 1016.29 1015.94 1015.83 1015.69 1015.64 1015.75 1015.42 1014.58 1013.66 1012.99 1012.43 1011.76 1010.89 1010.78 1010.79 1010.56 1010.42 1009.64 1008.55 1007.52 1007.15 1006.66 1006.44 1006.29 1006.34 1006.29 1006.24 1006.53 1006.28 1005.85 1005.63
1017.20 1017.41 1017.67 1017.83 1017.68 1017.96 1018.07 1018.06 1017.73 1017.21 1017.07 1016.85 1016.52 1016.04 1015.46 1015.50 1015.50 1015.85 1015.92 1015.20 1014.76 1013.93 1012.84 1011.62 1010.98 1010.77 1010.56 1010.05 1009.55 1009.03 1008.09 1006.98 1006.51 1006.23 1005.95 1005.81 1005.66 1005.51 1005.38 1005.31 1005.37 1005.30 1005.15
1017.64 1017.76 1018.16 1018.32 1018.27 1018.10 1018.39 1018.09 1017.72 1017.61 1017.35 1016.67 1015.94 1015.61 1015.54 1015.53 1015.65 1015.87 1015.84 1015.70 1015.34 1014.48 1013.35 1012.39 1011.78 1011.18 1010.44 1009.63 1008.96 1008.08 1007.17 1006.25 1005.65 1005.30 1005.30 1005.25 1005.27 1005.12 1004.85 1004.23 1004.23 1004.44 1004.63
1018.16 1018.49 1018.49 1018.54 1018.44 1018.19 1018.04 1018.02 1017.65 1018.09 1017.36 1016.69 1016.52 1016.42 1016.04 1015.82 1015.91 1016.14 1016.05 1015.75 1015.07 1014.41 1013.65 1012.84 1011.78 1011.07 1010.34 1009.42 1008.73 1007.81 1006.73 1005.58 1004.60 1004.78 1005.08 1005.04 1005.02 1004.88 1004.80 1004.68 1004.08 1004.07 1004.19
1018.81 1018.69 1018.62 1018.57 1018.71 1018.28 1018.00 1017.91 1018.15 1017.99 1017.85 1017.78 1018.06 1017.92 1017.21 1016.93 1016.97 1017.02 1016.56 1015.90 1015.12 1014.19 1013.44 1012.18 1011.66 1011.37 1010.72 1009.97 1008.79 1008.00 1007.13 1006.30 1005.77 1005.36 1005.40 1005.34 1005.20 1005.04 1004.93 1004.69 1004.22 1004.12 1004.07
1018.93 1018.97 1018.91 1018.72 1018.84 1018.72 1018.65 1018.38 1018.14 1018.90 1019.27 1019.38 1019.55 1019.44 1018.95 1018.50 1018.52 1018.34 1017.80 1016.85 1015.72 1014.69 1013.64 1012.66 1011.98 1011.52 1010.89 1010.16 1009.51 1008.67 1007.77 1006.73 1006.42 1006.18 1005.85 1005.57 1005.28 1005.00 1004.73 1004.56 1004.42 1004.26 1004.04
1019.05 1019.07 1019.36 1019.27 1019.23 1018.89 1018.61 1017.89 1019.04 1019.44 1019.73 1020.08 1020.36 1020.31 1019.92 1019.61 1019.06 1018.21 1017.33 1016.63 1015.83 1014.65 1013.64 1013.28 1012.86 1012.42 1011.93 1011.39 1010.63 1009.60 1008.46 1007.64 1006.87 1006.23 1005.86 1005.64 1005.41 1005.17 1004.89 1004.59 1004.45 1004.24 1003.98
1020.23 1020.20 1019.54 1019.50 1019.56 1019.15 1018.41 1018.36 1018.48 1019.66 1020.03 1020.28 1020.38 1020.36 1020.22 1019.81 1019.07 1018.07 1017.00 1016.14 1015.69 1014.77 1014.43 1014.12 1013.71 1013.06 1012.57 1012.20 1011.55 1010.69 1009.76 1008.87 1007.77 1006.80 1005.75 1005.22 1004.95 1004.83 1004.76 1004.49 1004.27 1004.15 1003.59
1020.47 1021.01 1020.41 1020.16 1019.46 1019.19 1019.08 1019.10 1019.23 1019.89 1019.98 1019.87 1020.22 1020.31 1020.21 1019.85 1019.15 1018.46 1017.29 1016.16 1015.65 1015.36 1015.33 1014.87 1014.21 1013.65 1013.05 1012.42 1011.76 1011.20 1010.44 1009.93 1008.75 1007.48 1006.27 1005.46 1004.35 1004.31 1004.26 1004.02 1003.88 1003.55 1003.19
1020.37 1020.47 1020.53 1019.69 1019.77 1019.95 1019.37 1019.40 1020.13 1020.82 1020.83 1020.69 1020.48 1020.24 1020.53 1020.05 1019.08 1018.74 1017.57 1017.10 1017.08 1016.62 1016.24 1015.41 1014.14 1013.58 1012.93 1012.31 1011.80 1011.31 1010.82 1010.33 1009.71 1008.66 1007.52 1006.45 1005.21 1004.36 1004.10 1003.93 1003.54 1003.44 1003.33
1021.04 1021.43 1021.01 1019.83 1019.74 1019.62 1019.76 1020.23 1021.01 1021.61 1021.58 1021.57 1021.59 1021.69 1021.36 1020.38 1019.54 1018.71 1018.81 1018.36 1018.02 1017.53 1017.16 1016.42 1014.39 1013.98 1013.31 1012.70 1012.16 1011.48 1010.98 1010.59 1009.91 1009.08 1007.85 1006.67 1005.28 1004.72 1004.21 1003.93 1003.66 1003.40 1003.04
1020.99 1020.94 1021.26 1020.12 1020.38 1020.69 1020.83 1021.39 1021.95 1022.33 1022.26 1022.31 1022.37 1022.57 1021.99 1021.18 1020.59 1019.74 1019.33 1019.22 1018.98 1018.19 1017.51 1016.45 1015.07 1014.65 1014.19 1013.67 1013.25 1012.59 1012.04 1011.75 1011.08 1009.74 1008.28 1007.20 1005.78 1004.73 1004.31 1004.12 1003.92 1003.66 1003.67
1021.13 1021.06 1021.14 1021.18 1021.28 1021.48 1021.70 1022.18 1022.52 1022.65 1022.47 1022.36 1022.41 1022.44 1022.11 1021.22 1021.08 1020.62 1019.28 1019.24 1019.00 1017.89 1017.00 1016.41 1015.97 1015.57 1015.29 1014.84 1014.46 1013.83 1013.22 1012.89 1012.25 1010.63 1008.69 1007.67 1006.43 1005.68 1004.81 1004.22 1004.41 1004.26 1004.15
1021.40 1021.47 1021.71 1021.97 1022.09 1022.48 1022.40 1022.76 1022.87 1022.82 1022.67 1022.40 1022.12 1022.03 1021.81 1021.24 1020.69 1020.19 1019.43 1018.71 1017.95 1017.67 1017.36 1017.13 1016.85 1016.58 1016.39 1016.07 1015.74 1015.21 1014.56 1014.18 1013.58 1011.61 1010.09 1008.22 1006.78 1006.47 1005.50 1004.65 1004.63 1004.49 1004.63
1022.14 1022.32 1022.42 1022.68 1022.96 1022.90 1023.03 1023.29 1023.50 1023.38 1023.09 1022.83 1022.31 1021.27 1020.49 1020.36 1020.23 1019.72 1019.33 1018.86 1018.53 1018.12 1018.10 1017.87 1017.70 1017.79 1017.50 1017.31 1017.00 1016.44 1015.86 1015.60 1014.33 1012.50 1011.00 1008.78 1007.85 1006.94 1006.09 1005.48 1005.22 1005.08 1004.67
1022.84 1022.77 1022.95 1023.24 1023.47 1023.51 1023.28 1023.18 1023.12 1023.06 1022.68 1022.30 1021.78 1021.28 1021.03 1020.76 1020.56 1020.44 1019.98 1019.40 1018.98 1018.80 1018.71 1018.50 1018.38 1018.62 1018.38 1018.25 1018.24 1017.65 1016.95 1015.86 1014.48 1013.53 1011.53 1009.67 1009.11 1008.08 1007.11 1006.30 1005.99 1005.40 1004.99
1023.12 1023.28 1023.37 1023.46 1023.63 1023.56 1023.32 1022.83 1022.37 1022.06 1021.97 1021.70 1021.64 1021.68 1021.61 1021.44 1021.33 1021.00 1020.64 1020.26 1019.75 1019.52 1019.35 1019.33 1018.98 1019.07 1019.38 1019.12 1019.05 1018.55 1017.60 1016.40 1015.09 1013.64 1012.02 1010.67 1010.05 1009.18 1008.56 1007.86 1007.20 1006.55 1006.08
Wind_Speed
13 13 12 11 11 9 8 7 7 7 8 8 8 7 8 8 9 9 10 12 12 11 11 12 13 12 11 11 11 10 8 6 9 8 8 9 6 10 8 1 7 4 7
12 12 12 10 10 9 7 8 8 9 9 10 10 10 10 10 10 10 11 12 13 13 14 14 15 12 13 13 12 13 12 10 9 15 10 11 14 8 7 14 7 10 6
12 11 9 9 8 8 7 7 7 7 6 7 8 8 9 9 8 10 11 12 12 13 13 14 15 15 13 12 12 13 12 11 12 12 11 9 10 10 10 10 9 11 10
10 10 9 7 8 9 8 8 8 7 7 7 7 7 8 9 10 12 13 13 13 13 14 12 12 12 12 13 13 14 14 14 14 13 13 12 11 9 11 10 9 9 12
9 8 8 8 8 10 10 7 7 8 8 8 9 9 8 7 9 12 13 14 13 13 13 13 13 16 20 16 9 11 12 13 13 14 14 14 12 10 10 8 10 9 9
9 9 9 9 9 6 5 6 7 9 10 9 9 9 8 8 10 10 11 12 11 11 11 12 12 14 11 15 10 11 10 13 15 13 13 13 16 14 12 12 12 11 11
7 7 8 8 7 6 6 7 8 8 9 9 9 9 8 7 5 3 7 11 11 11 12 11 11 10 9 11 13 15 16 16 18 15 15 15 14 12 8 10 8 8 8
9 9 8 8 7 7 8 9 8 8 7 7 7 8 7 4 2 5 11 13 12 14 13 13 13 13 10 10 13 15 16 16 14 11 12 12 12 10 7 4 3 6 7
8 7 8 7 7 7 9 8 8 7 7 7 8 9 9 10 7 6 12 12 11 14 14 15 14 15 16 11 10 14 15 15 12 16 19 19 16 16 14 11 10 8 7
8 7 7 7 7 8 9 7 7 7 8 8 8 10 8 9 6 2 9 11 15 13 16 14 15 10 10 10 11 13 15 16 14 13 11 8 14 14 16 12 10 9 8
7 6 6 7 6 6 6 6 6 8 8 9 9 8 7 9 11 13 12 13 12 13 12 13 12 16 21 21 18 12 13 14 16 12 10 8 6 6 9 9 11 10 8
5 6 6 6 5 5 5 6 7 9 8 8 6 8 8 10 9 14 19 16 17 11 12 11 12 19 22 20 16 16 21 19 9 8 6 5 6 7 7 6 9 9 8
6 5 5 4 6 4 4 5 6 8 8 9 9 9 9 9 10 15 16 17 17 12 9 14 20 15 16 12 18 18 18 11 9 3 4 3 3 5 6 8 8 3 4
3 3 4 4 6 5 5 5 5 5 9 9 9 10 9 9 10 12 12 12 13 11 13 9 10 9 9 11 14 13 12 11 11 4 2 2 3 3 5 5 2 3 4
1 3 4 4 5 4 5 3 5 9 6 7 7 7 9 9 11 15 13 10 10 12 12 10 11 12 13 13 13 13 11 10 9 7 6 5 4 3 3 4 2 3 5
3 4 5 4 5 4 4 3 6 5 7 7 3 4 7 5 14 17 16 15 15 15 8 11 11 10 11 12 12 13 11 13 9 6 6 5 4 4 4 3 3 3 6
3 4 4 4 5 4 5 5 4 4 5 6 1 4 8 11 14 17 19 18 8 11 11 11 10 11 10 10 11 12 12 12 14 11 5 3 2 2 3 3 3 4 5
2 2 3 3 3 4 5 4 4 5 6 4 1 6 12 16 15 14 18 11 10 12 11 10 10 10 12 11 10 10 11 12 13 12 12 11 4 1 3 3 3 4 5
3 3 3 3 5 2 3 4 6 6 5 6 7 7 14 14 15 5 16 11 10 11 11 11 11 11 11 10 10 10 11 10 10 11 11 11 11 7 2 3 3 4 4
1 1 5 4 3 3 5 5 6 5 5 6 7 9 9 7 9 9 10 11 10 10 11 11 12 12 13 14 14 13 13 14 12 11 13 12 10 5 5 5 3 6 4
0 2 4 2 5 4 4 6 6 5 5 5 5 8 10 6 8 9 11 10 8 9 9 11 13 13 13 14 14 14 15 14 14 13 12 13 13 11 7 5 6 5 6
0 2 3 4 4 3 5 5 4 3 4 4 4 5 7 7 7 7 7 7 6 7 8 11 12 13 14 15 15 15 15 15 14 15 15 13 11 12 11 7 6 7 7
3 3 3 4 4 2 4 4 4 4 4 6 5 3 4 4 6 7 8 8 7 10 10 11 13 13 14 14 14 14 14 15 14 16 16 14 10 10 13 10 10 6 5
4 4 4 5 4 4 5 4 5 5 5 4 4 5 6 7 8 9 9 9 10 10 11 11 12 18 15 15 14 14 14 15 14 15 20 13 13 13 11 11 11 11 4
3 4 5 5 5 4 2 4 5 3 2 3 2 5 7 8 8 9 10 10 10 10 12 12 12 17 19 22 22 24 22 23 21 19 14 16 18 18 15 12 13 10 11
4 5 5 5 4 4 2 2 4 5 5 6 7 8 8 9 9 9 10 11 10 11 13 11 15 21 22 18 22 21 22 24 23 25 15 15 15 14 13 15 19 13 15
Wind_Direction
95 90 81 76 74 66 59 46 36 23 11 2 351 350 328 335 344 334 322 303 320 309 310 306 313 313 304 308 304 297 280 295 296 300 288 307 333 333 324 86 312 237 191
87 82 83 81 71 61 47 34 19 11 7 351 343 348 342 342 343 328 317 324 318 324 319 315 312 313 316 308 301 299 307 292 267 283 281 284 292 272 287 303 298 285 265
92 84 77 70 70 55 35 19 6 9 352 345 339 337 350 342 345 0 345 329 325 321 318 320 319 317 310 309 308 304 301 301 303 294 295 279 264 273 263 248 239 247 270
89 83 70 57 50 39 18 13 356 5 4 354 357 360 356 346 34 355 344 334 330 327 322 327 320 320 350 330 318 317 307 310 307 298 283 274 269 261 256 264 259 241 244
82 73 49 34 35 32 18 14 9 18 5 356 -0 359 357 4 30 6 350 340 327 330 334 334 318 329 320 307 323 321 321 302 297 294 291 292 290 282 283 290 283 276 260
49 33 35 27 34 18 7 19 15 9 6 359 3 354 354 48 54 16 343 326 331 318 327 323 319 306 318 322 315 313 305 298 293 292 292 291 296 307 327 334 331 324 308
29 33 32 17 26 18 20 18 11 8 4 359 359 359 -0 92 76 3 323 316 330 328 327 324 317 325 312 305 298 285 275 268 259 274 279 279 286 293 324 314 318 318 308
31 29 23 18 24 14 13 16 9 5 354 347 7 356 357 12 108 352 331 343 327 329 324 313 309 305 306 296 299 299 295 290 280 266 264 274 270 278 280 300 315 301 297
35 29 25 18 15 11 10 11 14 350 3 345 0 358 347 335 22 11 335 325 323 323 322 323 317 303 295 279 284 289 289 284 285 260 246 253 253 257 262 283 272 262 269
33 33 23 15 11 14 11 9 6 338 26 349 353 2 348 333 10 295 343 336 329 331 323 315 283 292 336 328 311 294 285 280 283 280 288 289 255 262 251 244 263 266 246
33 31 22 15 1 25 10 10 351 0 3 359 349 327 349 5 359 36 14 348 342 326 318 322 328 349 332 315 303 292 273 278 281 273 269 262 265 261 265 225 230 241 252
27 32 22 16 360 28 23 10 345 17 349 303 341 4 359 359 22 28 6 355 334 330 321 323 326 320 310 305 308 302 292 289 268 259 260 258 249 254 271 284 224 218 233
43 15 10 7 354 12 16 8 14 8 320 358 6 1 353 4 0 12 349 338 330 325 313 311 293 308 324 330 336 323 326 329 312 246 266 276 257 270 295 301 274 212 266
38 1 4 23 336 26 342 28 0 351 5 5 6 347 347 -0 359 350 344 340 342 336 335 322 355 349 329 343 348 348 342 359 3 27 348 324 297 289 292 290 333 314 273
31 359 10 10 19 3 351 339 343 63 30 3 7 340 342 345 348 320 320 328 338 327 321 10 11 4 359 357 352 348 345 350 14 13 7 358 352 327 321 332 4 303 282
299 38 44 13 352 356 326 327 97 84 118 88 39 16 339 328 323 323 329 328 313 323 24 21 9 1 358 355 352 344 346 348 344 11 12 10 355 339 324 311 298 282 294
21 359 5 32 1 341 329 0 6 146 129 125 46 106 5 345 332 335 335 325 274 2 23 14 2 356 358 356 354 350 344 346 343 350 326 314 284 248 282 292 290 280 280
12 142 10 358 314 343 22 341 18 15 352 12 106 52 21 351 332 335 328 345 18 26 20 2 3 358 359 354 351 347 342 351 347 344 344 345 302 329 275 286 255 291 299
359 358 341 306 52 360 327 18 45 26 6 5 354 2 17 337 317 25 343 32 23 15 10 353 4 1 360 354 359 351 351 349 341 339 339 338 331 346 357 339 333 265 322
84 25 284 328 29 18 29 38 47 25 22 20 19 4 344 354 13 10 35 20 20 15 10 346 0 5 1 360 360 354 357 353 349 340 336 336 321 321 343 343 323 340 22
168 31 343 298 42 24 38 54 57 38 34 34 23 16 330 14 359 24 18 24 3 8 8 340 8 8 5 3 2 356 358 354 349 335 337 337 347 356 43 13 16 42 17
88 64 33 52 50 39 51 65 60 49 18 50 39 17 348 15 28 348 16 27 7 -0 10 7 14 13 9 6 3 356 359 353 348 336 338 333 351 353 353 39 33 30 26
74 89 88 63 68 87 72 62 56 56 34 22 34 38 23 23 25 20 15 5 16 29 19 18 22 14 14 11 7 359 1 353 340 333 334 321 356 354 352 10 9 68 65
89 95 94 79 58 62 70 70 77 66 51 37 4 341 31 35 27 18 22 20 25 29 25 27 30 22 17 16 9 2 1 350 330 340 328 345 354 353 347 360 3 10 37
121 115 110 98 94 96 126 145 142 125 161 178 44 42 34 32 33 26 23 20 30 26 35 24 27 27 16 18 13 3 352 344 339 338 329 1 4 359 355 359 356 354 1
105 116 116 108 101 85 62 51 74 72 62 55 53 47 38 30 30 27 26 23 22 32 28 24 26 35 21 16 9 359 351 347 343 339 332 9 15 359 7 3 2 3 353